Voltar ao catálogo

STARLINK-3911

AtivoComunicaçõesVLEO
NORAD 52565·PAYLOAD·🇺🇸 United States

Lançado May 13, 2022 de Vandenberg Space Force Base

Loading…

Próximas Passagens (próximas 24 horas)

TLE

AtualizadoSource: CelesTrak SupGP

Época: Sep 15, 2026, 01:19 UTC

1 52565C 22051AJ  26258.05534722  .00033435  00000+0  10147-2 0  2584
2 52565  53.1588 343.3472 0001236  90.8937 149.9229 15.33528122    18

Acompanhe STARLINK-3911 em tempo real com AllMySat

Download on the App Store